[[{"header":{"parameterUnit":"m.s-1","parameterCategory":1,"la1":30.2991,"la2":30.254,"lo1":-89.0895,"lo2":-89.0444,"dy":0.0017,"dx":0.0017,"nx":28,"ny":28,"refTime":"2025-07-29T03:00:00:Z","depth":0,"parameterNumber":2,"parameterNumberName":"U-component_of_WINDS"},"data":[0,0,0,0,0,0,0,0,0,0,0,0,0,0,0,0,0,0,0,0,0,0,0,0,0,0,0,0,0,0,0,0,0,0,0,0,0,0,0,0,0,0,0,0,0,0,0,0,0,0,0,0,0,0,0,0,0,0,0.077,0.077,0,0.0746,0.0745,0.0745,0.0659,0.0657,0.0655,0.0653,0.0635,0.0636,0.0637,0,0,0,0,0,0,0,0,0,0,0,0,0,0.0749,0.0749,0.077,0.077,0.077,0.0746,0.0745,0.0745,0.066,0.0657,0.0655,0.0653,0.0634,0.0636,0.0637,0,0,0,0,0,0,0,0,0,0,0,0,0,0.0745,0.075,0.077,0.0724,0.072,0.0746,0.0745,0.0745,0.066,0.0657,0.0654,0.0651,0.0634,0.0635,0.0637,0.0708,0,0,0.0643,0.0644,0,0,0,0,0,0,0,0,0.0745,0.0745,0.0731,0.0727,0.0722,0.0702,0.073,0.0733,0.0661,0.0683,0.0653,0.065,0.066,0.066,0.0661,0.0707,0.0707,0.0644,0.0645,0.0646,0.0646,0,0,0,0,0,0,0,0.0745,0.0746,0.0761,0.0731,0.0726,0.0706,0.0702,0.0731,0.0688,0.0681,0.0674,0.0672,0.0657,0.066,0.066,0.0706,0.0644,0.0645,0.0647,0.0647,0.0809,0.0812,0,0,0,0,0,0,0.0751,0.0747,0.0762,0.076,0.0726,0.0709,0.0705,0.0712,0.0688,0.0681,0.0675,0.0668,0.0658,0.0658,0.0659,0.0742,0.0646,0.0648,0.0649,0.0806,0.081,0.0813,0,0,0,0,0,0,0.0751,0.0753,0.0763,0.0752,0.0751,0.0712,0.0721,0.0713,0.0716,0.0683,0.0676,0.0685,0.0656,0.0657,0.0696,0.074,0.0648,0.065,0.0803,0.0807,0.0812,0.0907,0,0,0,0,0,0,0.0751,0.0754,0.078,0.0753,0.0752,0.0799,0.0724,0.0715,0.0719,0.071,0.0691,0.0685,0.0653,0.0694,0.0698,0.0741,0.0652,0.0799,0.0805,0.081,0.09,0.0914,0.0927,0,0,0,0,0,0.075,0.0809,0.0781,0.0784,0.0783,0.0802,0.0801,0.0762,0.0722,0.0749,0.0727,0.0686,0.0733,0.0699,0.0703,0.0747,0.0796,0.0803,0.081,0.0894,0.0912,0.0926,0,0,0,0,0,0,0.0845,0.0805,0.0774,0.0825,0.0817,0.0787,0.0819,0.0782,0.0787,0.0779,0.0731,0.0728,0.0775,0.0764,0.0726,0.0814,0.0758,0.0766,0.082,0.0837,0.085,0.0853,0.0653,0,0,0,0,0,0.0871,0.0887,0.0852,0.09,0.0898,0.0859,0.0866,0.0835,0.0826,0.0824,0.0805,0.08,0.0813,0.0824,0.0834,0.0896,0.0892,0.0929,0.0942,0.0953,0.0962,0.0995,0.1012,0.0837,0.0836,0.0836,0,0,0.0926,0.0906,0.092,0.0919,0.0909,0.0929,0.0857,0.0882,0.0897,0.0828,0.0864,0.085,0.0841,0.0892,0.0914,0.0885,0.1009,0.0962,0.0971,0.0974,0.1004,0.1021,0.1036,0.0841,0.084,0.084,0,0,0.1038,0.1023,0.1062,0.1053,0.1039,0.1012,0.1022,0.0997,0.0985,0.1019,0.0968,0.0986,0.101,0.1006,0.1007,0.1114,0.1077,0.1118,0.119,0.1223,0.1237,0.1249,0.129,0.1305,0.1127,0.1127,0.1127,0,0.111,0.1136,0.1088,0.1115,0.1117,0.1052,0.1092,0.1086,0.1077,0.1081,0.1047,0.1075,0.1065,0.1115,0.1141,0.1142,0.1154,0.1123,0.1238,0.125,0.1261,0.1299,0.1314,0.1132,0.1132,0.1131,0.1131,0,0.1226,0.1245,0.1278,0.1268,0.1273,0.1307,0.1266,0.1276,0.1245,0.1222,0.1259,0.1243,0.125,0.1258,0.1229,0.1304,0.1287,0.1247,0.119,0.1284,0.1319,0.1333,0.114,0.1138,0.1136,0.1135,0,0,0.14,0.1361,0.1374,0.1369,0.1347,0.1362,0.1392,0.1396,0.1407,0.1402,0.1429,0.1449,0.1411,0.1412,0.1381,0.1409,0.1498,0.1366,0.1365,0.1393,0.1583,0.1616,0.1633,0.1471,0.1473,0.1475,0.1584,0,0.1508,0.1557,0.1514,0.1573,0.159,0.1527,0.1554,0.1545,0.1524,0.1537,0.1514,0.1531,0.1478,0.1478,0.1503,0.1482,0.1536,0.1473,0.1498,0.15,0.1506,0.1651,0.1686,0.179,0.1597,0.16,0.1601,0,0.1642,0.1641,0.1701,0.1673,0.1679,0.1704,0.1704,0.1717,0.1704,0.1687,0.1687,0.1648,0.1678,0.1618,0.166,0.1618,0.1625,0.1616,0.1619,0.1623,0.1559,0.1663,0.1822,0.1839,0.1622,0.162,0.1619,0,0.1767,0.1779,0.1817,0.1814,0.1783,0.1802,0.1791,0.1775,0.178,0.178,0.1783,0.1787,0.1791,0.1795,0.1759,0.1719,0.1806,0.1743,0.1795,0.1797,0.182,0.182,0.1987,0.1819,0.1819,0.1818,0.1818,0,0.1894,0.1934,0.1872,0.1896,0.1939,0.1888,0.1932,0.1914,0.19,0.1921,0.1866,0.1886,0.1835,0.185,0.1821,0.1862,0.1863,0.1852,0.1844,0.1859,0.1861,0.1866,0.1859,0.1822,0.1821,0.1821,0.182,0,0.2043,0.2002,0.2039,0.2006,0.1998,0.2031,0.2003,0.2025,0.1998,0.2025,0.2028,0.1988,0.2003,0.1966,0.1976,0.1956,0.2015,0.1994,0.2019,0.2014,0.2069,0.2066,0.2248,0.2271,0.2086,0.2087,0.2089,0,0.2128,0.2157,0.2126,0.2134,0.2125,0.2139,0.2143,0.2094,0.2101,0.2087,0.2111,0.2121,0.2127,0.2154,0.2128,0.2135,0.2116,0.2179,0.2118,0.2131,0.2121,0.2121,0.2125,0.2194,0.2196,0.2198,0.22,0,0.2286,0.2264,0.2271,0.2271,0.2277,0.2275,0.2269,0.228,0.2227,0.2238,0.2251,0.2255,0.2264,0.2276,0.2277,0.2267,0.2226,0.2218,0.2231,0.2249,0.2263,0.2259,0.2058,0.2216,0.2214,0.2213,0.2212,0.2211,0.2408,0.2431,0.2412,0.2421,0.2411,0.2407,0.2425,0.24,0.241,0.2412,0.2382,0.2403,0.2389,0.2386,0.2379,0.2396,0.2367,0.2385,0.2391,0.2397,0.2407,0.2257,0.2395,0.2395,0.2394,0.2394,0.2393,0,0.2565,0.2549,0.2558,0.2551,0.2559,0.2514,0.2506,0.2516,0.2534,0.2523,0.2529,0.2546,0.2556,0.2529,0.2535,0.2554,0.2535,0.2558,0.2558,0.2557,0.2431,0.242,0.2573,0.2573,0.2572,0.2572,0.2572,0.2572,0.2648,0.2685,0.2661,0.2692,0.2676,0.2694,0.2693,0.2689,0.268,0.27,0.2708,0.2688,0.2672,0.2676,0.2684,0.2676,0.2683,0.2713,0.2699,0.2583,0.2565,0.2549,0.2539,0.2713,0.2714,0.2823,0.2824,0.2825]},{"header":{"parameterUnit":"m.s-1","parameterCategory":1,"la1":30.2991,"la2":30.254,"lo1":-89.0895,"lo2":-89.0444,"dy":0.0017,"dx":0.0017,"nx":28,"ny":28,"refTime":"2025-07-29T03:00:00:Z","depth":0,"parameterNumber":3,"parameterNumberName":"V-component_of_WINDS"},"data":[0,0,0,0,0,0,0,0,0,0,0,0,0,0,0,0,0,0,0,0,0,0,0,0,0,0,0,0,0,0,0,0,0,0,0,0,0,0,0,0,0,0,0,0,0,0,0,0,0,0,0,0,0,0,0,0,0,0,-1.7483,-1.7485,0,-1.7734,-1.7737,-1.774,-1.7852,-1.7852,-1.7851,-1.7851,-1.8108,-1.8115,-1.8122,0,0,0,0,0,0,0,0,0,0,0,0,0,-1.7099,-1.7105,-1.7482,-1.7486,-1.7489,-1.7734,-1.7737,-1.7741,-1.7852,-1.7852,-1.7851,-1.7851,-1.8105,-1.8114,-1.8122,0,0,0,0,0,0,0,0,0,0,0,0,0,-1.7299,-1.7107,-1.7482,-1.7574,-1.7585,-1.7733,-1.7737,-1.7742,-1.7852,-1.7852,-1.7851,-1.7851,-1.8103,-1.8113,-1.8123,-1.8199,0,0,-1.8156,-1.8161,0,0,0,0,0,0,0,0,-1.7288,-1.7313,-1.7557,-1.7568,-1.758,-1.7761,-1.7696,-1.7895,-1.7852,-1.7751,-1.7851,-1.7851,-1.7993,-1.8012,-1.8061,-1.8211,-1.8222,-1.8157,-1.8163,-1.8168,-1.8171,0,0,0,0,0,0,0,-1.7274,-1.7303,-1.7582,-1.7561,-1.7575,-1.7603,-1.7631,-1.7734,-1.7871,-1.7759,-1.7768,-1.7796,-1.7999,-1.805,-1.8067,-1.8226,-1.8157,-1.8166,-1.8173,-1.8177,-1.8452,-1.8453,0,0,0,0,0,0,-1.7245,-1.7291,-1.7574,-1.759,-1.743,-1.761,-1.7641,-1.7704,-1.787,-1.7895,-1.7797,-1.7801,-1.8032,-1.8055,-1.8077,-1.8177,-1.8168,-1.8178,-1.8184,-1.8451,-1.8452,-1.8453,0,0,0,0,0,0,-1.7236,-1.7269,-1.7564,-1.7443,-1.7482,-1.7617,-1.7686,-1.7709,-1.776,-1.7899,-1.7923,-1.7824,-1.8033,-1.8062,-1.8168,-1.8188,-1.8183,-1.8193,-1.845,-1.8451,-1.8453,-1.8377,0,0,0,0,0,0,-1.7225,-1.7265,-1.7295,-1.7443,-1.7488,-1.7651,-1.7687,-1.7714,-1.7778,-1.7786,-1.7931,-1.7954,-1.8034,-1.8152,-1.8179,-1.8202,-1.8201,-1.8449,-1.8451,-1.8452,-1.8379,-1.8376,-1.8374,0,0,0,0,0,-1.721,-1.7263,-1.7296,-1.733,-1.7529,-1.7651,-1.7678,-1.777,-1.7779,-1.7811,-1.79,-1.7949,-1.8181,-1.8161,-1.8193,-1.822,-1.8448,-1.845,-1.8452,-1.838,-1.8376,-1.8374,0,0,0,0,0,0,-1.7114,-1.7284,-1.7322,-1.7424,-1.7523,-1.767,-1.7712,-1.7763,-1.786,-1.7863,-1.7973,-1.8004,-1.8101,-1.8172,-1.8147,-1.8303,-1.8319,-1.8327,-1.8253,-1.8251,-1.8249,-1.823,-1.821,0,0,0,0,0,-1.7105,-1.719,-1.7334,-1.7411,-1.7458,-1.7576,-1.7633,-1.7696,-1.7802,-1.7844,-1.7941,-1.8042,-1.8138,-1.8198,-1.8294,-1.8389,-1.8423,-1.8424,-1.8421,-1.8418,-1.8424,-1.8481,-1.8484,-1.846,-1.846,-1.846,0,0,-1.7086,-1.719,-1.7237,-1.7394,-1.7477,-1.7564,-1.7611,-1.77,-1.7765,-1.7857,-1.7964,-1.8039,-1.8159,-1.826,-1.8309,-1.8321,-1.8438,-1.8421,-1.8418,-1.8426,-1.8484,-1.8486,-1.8487,-1.8461,-1.8461,-1.8461,0,0,-1.7097,-1.7183,-1.7257,-1.734,-1.7466,-1.7545,-1.7562,-1.7703,-1.7756,-1.7865,-1.7936,-1.8015,-1.8178,-1.8261,-1.8324,-1.8367,-1.8417,-1.8395,-1.8382,-1.8436,-1.8438,-1.844,-1.8456,-1.8461,-1.8401,-1.8401,-1.84,0,-1.7058,-1.7191,-1.7288,-1.7375,-1.7442,-1.753,-1.7605,-1.7681,-1.7831,-1.7876,-1.7887,-1.8094,-1.8181,-1.8303,-1.8314,-1.8362,-1.8386,-1.8379,-1.843,-1.8433,-1.8437,-1.8453,-1.8459,-1.8397,-1.8398,-1.8398,-1.8398,0,-1.7138,-1.7229,-1.7273,-1.7417,-1.7489,-1.7569,-1.7679,-1.7741,-1.7797,-1.7874,-1.7984,-1.8092,-1.8211,-1.8245,-1.83,-1.8376,-1.838,-1.8409,-1.8428,-1.8434,-1.8451,-1.8459,-1.8392,-1.8394,-1.8395,-1.8395,0,0,-1.7094,-1.7292,-1.7306,-1.7373,-1.7519,-1.7592,-1.7676,-1.7794,-1.7845,-1.7946,-1.802,-1.8155,-1.8184,-1.8256,-1.8321,-1.8369,-1.8397,-1.8393,-1.8398,-1.839,-1.8488,-1.8465,-1.8471,-1.8431,-1.8432,-1.8434,-1.8478,0,-1.7126,-1.7281,-1.7371,-1.749,-1.7576,-1.7661,-1.7735,-1.7832,-1.7907,-1.7991,-1.8074,-1.8169,-1.8199,-1.8243,-1.8294,-1.8383,-1.8418,-1.8381,-1.8501,-1.8504,-1.8469,-1.848,-1.8457,-1.8494,-1.8486,-1.8487,-1.8488,0,-1.7183,-1.7283,-1.7409,-1.7547,-1.7586,-1.7651,-1.7767,-1.7846,-1.7958,-1.801,-1.809,-1.8156,-1.8249,-1.826,-1.839,-1.8362,-1.8417,-1.8468,-1.8472,-1.8487,-1.8496,-1.8496,-1.8508,-1.8513,-1.85,-1.8499,-1.8498,0,-1.7139,-1.7306,-1.7404,-1.7458,-1.762,-1.7664,-1.7733,-1.7846,-1.7911,-1.8012,-1.8056,-1.8165,-1.8226,-1.8309,-1.8403,-1.8403,-1.8524,-1.8543,-1.857,-1.8567,-1.8591,-1.8589,-1.8612,-1.8625,-1.8625,-1.8625,-1.8625,0,-1.7165,-1.724,-1.7386,-1.7446,-1.7533,-1.7636,-1.7719,-1.7795,-1.7894,-1.7971,-1.8051,-1.8122,-1.8241,-1.8327,-1.8401,-1.8497,-1.8524,-1.8568,-1.8587,-1.8561,-1.8556,-1.8599,-1.8599,-1.8627,-1.8626,-1.8626,-1.8626,0,-1.7131,-1.7233,-1.7345,-1.749,-1.7528,-1.7585,-1.7709,-1.7771,-1.785,-1.7946,-1.7975,-1.8099,-1.8204,-1.8306,-1.8446,-1.8496,-1.8592,-1.8617,-1.8554,-1.8565,-1.8586,-1.8582,-1.8638,-1.8651,-1.8654,-1.8654,-1.8654,0,-1.7141,-1.7201,-1.7352,-1.741,-1.7478,-1.7569,-1.7636,-1.774,-1.7807,-1.794,-1.7986,-1.8096,-1.8191,-1.8354,-1.8457,-1.8564,-1.8593,-1.8605,-1.861,-1.8582,-1.8594,-1.8589,-1.8596,-1.8602,-1.8601,-1.8601,-1.8601,0,-1.7149,-1.7196,-1.729,-1.7402,-1.7479,-1.7572,-1.7668,-1.771,-1.7833,-1.7904,-1.8012,-1.8085,-1.8229,-1.8338,-1.8458,-1.853,-1.8586,-1.8598,-1.8611,-1.8585,-1.8546,-1.8568,-1.8547,-1.8597,-1.8597,-1.8597,-1.8598,-1.8598,-1.7139,-1.7196,-1.7311,-1.7413,-1.7496,-1.7584,-1.7649,-1.7737,-1.7829,-1.7954,-1.801,-1.8119,-1.8232,-1.8399,-1.847,-1.8557,-1.8571,-1.8588,-1.8593,-1.8595,-1.859,-1.8532,-1.8579,-1.8579,-1.858,-1.858,-1.858,0,-1.7151,-1.7229,-1.7322,-1.7454,-1.7534,-1.758,-1.7688,-1.7753,-1.7848,-1.7948,-1.8039,-1.8164,-1.827,-1.8381,-1.8494,-1.8542,-1.8571,-1.8569,-1.8566,-1.8582,-1.8571,-1.8549,-1.8544,-1.8544,-1.8544,-1.8544,-1.8544,-1.8544,-1.7167,-1.7266,-1.7327,-1.7469,-1.7547,-1.7655,-1.7713,-1.7794,-1.7875,-1.8011,-1.81,-1.8171,-1.8277,-1.8398,-1.8498,-1.8528,-1.8566,-1.8556,-1.8593,-1.858,-1.8583,-1.8585,-1.8566,-1.8563,-1.8563,-1.8598,-1.8598,-1.8598]}]]